Weather History for Moriarty, NM

Change the Weather History Date:

Tuesday, November 5, 2013

  Actual Average (KABQ) Record (KABQ)
Temperature  
Mean Temperature 39 °F 50 °F  
Max Temperature 49 °F 61 °F 81 °F (1915)
Min Temperature 29 °F 38 °F 16 °F (1922)
Degree Days  
Heating Degree Days 26 16  
Month to date heating degree days 74  
Since 1 July heating degree days 340  
Cooling Degree Days 0 0  
Month to date cooling degree days 0  
Year to date cooling degree days 1322  
Moisture  
Dew Point 31 °F    
Average Humidity 70    
Maximum Humidity 96    
Minimum Humidity 44    
Precipitation  
Precipitation 0.02 in 0.01 in 0.34 in (1911)
Month to date precipitation 0.10  
Year to date precipitation 8.48  
Snow  
Snow 0.00 in - - ()
Month to date snowfall  
Since 1 July snowfall  
Since 1 September snowfall  
Snow Depth -    
Sea Level Pressure  
Sea Level Pressure 30.05 in    
Wind  
Wind Speed 10 mph (WNW)    
Max Wind Speed 21 mph    
Max Gust Speed 28 mph    
Visibility 10 miles    
Events Rain , Thunderstorm    
T = Trace of Precipitation, MM = Missing Value Source: NWS Daily Summary

Daily Weather History Graph

Daily Weather History Graph

Search for Another Location

Airport:

Trip Planner

Search our weather history database for the weather conditions in past years. The results will help you decide how hot, cold, wet, or windy it might be!

Date:

Astronomy

Nov. 05, 2013 Rise Set
Actual Time 6:29 AM MST 5:05 PM MST
Civil Twilight 6:02 AM MST 5:32 PM MST
Nautical Twilight 5:32 AM MST 6:02 PM MST
Astronomical Twilight 5:02 AM MST 6:31 PM MST
Moon 8:43 AM MST (11/5) 7:13 PM MST (11/5)
Length of Visible Light 11h 29m
Length of Day
10h 36m
Waxing Crescent, 7% of the Moon is Illuminated
Nov 5
Waxing Crescent
Nov 9
First Quarter
Nov 17
Full
Nov 25
Last Quarter
Dec 2
New

Hourly Weather History & Observations

Time (MST) Temp. Windchill Dew Point Humidity Pressure Visibility Wind Dir Wind Speed Gust Speed Precip Events Conditions
12:15 AM 41.0 °F 33.9 °F 37.2 °F 86% 29.93 in 10.0 mi SE 12.7 mph - N/A Thunderstorm Thunderstorm
12:35 AM 41.4 °F 35.7 °F 37.9 °F 88% 29.92 in 10.0 mi SE 9.2 mph - N/A Thunderstorm Scattered Clouds
12:55 AM 41.9 °F 35.0 °F 38.5 °F 88% 29.92 in 10.0 mi SSE 12.7 mph - N/A Thunderstorm Thunderstorm
1:15 AM 41.4 °F 34.7 °F 38.7 °F 90% 29.91 in 10.0 mi SSE 11.5 mph - N/A Thunderstorm Scattered Clouds
1:35 AM 41.4 °F 33.6 °F 38.7 °F 90% 29.90 in 10.0 mi SSE 15.0 mph - N/A   Clear
1:55 AM 41.9 °F 36.3 °F 39.4 °F 91% 29.91 in 10.0 mi South 9.2 mph - N/A   Light Drizzle
2:15 AM 41.4 °F 37.6 °F 39.2 °F 92% 29.90 in 10.0 mi SSW 5.8 mph - N/A Rain , Thunderstorm Light Thunderstorms and Rain
2:35 AM 40.6 °F 37.5 °F 38.7 °F 93% 29.90 in 10.0 mi West 4.6 mph - N/A   Mostly Cloudy
2:55 AM 38.5 °F 34.1 °F 37.2 °F 95% 29.91 in 10.0 mi NW 5.8 mph - N/A   Mostly Cloudy
3:15 AM 39.9 °F 36.7 °F 38.5 °F 95% 29.91 in 10.0 mi West 4.6 mph - N/A   Overcast
3:35 AM 39.9 °F - 38.1 °F 93% 29.90 in 10.0 mi Calm Calm - N/A   Mostly Cloudy
3:55 AM 38.1 °F 33.7 °F 36.7 °F 95% 29.90 in 10.0 mi ESE 5.8 mph - N/A   Scattered Clouds
4:15 AM 37.9 °F - 36.7 °F 95% 29.90 in 10.0 mi Calm Calm - N/A Thunderstorm Scattered Clouds
4:35 AM 38.8 °F 33.2 °F 37.6 °F 95% 29.94 in 10.0 mi West 8.1 mph - N/A   Mostly Cloudy
4:55 AM 39.2 °F 33.0 °F 38.1 °F 96% 29.93 in 10.0 mi West 9.2 mph - N/A   Mostly Cloudy
5:15 AM 38.7 °F 36.3 °F 36.5 °F 92% 29.93 in 10.0 mi NNW 3.5 mph - N/A   Clear
5:35 AM 38.5 °F - 36.5 °F 93% 29.95 in 10.0 mi Calm Calm - N/A   Mostly Cloudy
5:55 AM 41.5 °F 34.2 °F 38.3 °F 88% 29.98 in 7.0 mi WSW 13.8 mph 18.4 mph 0.01 in Rain Light Rain
6:15 AM 40.6 °F 33.0 °F 37.8 °F 89% 29.98 in 10.0 mi West 13.8 mph - 0.01 in Rain Light Rain
6:35 AM 40.3 °F 33.9 °F 37.4 °F 89% 29.99 in 10.0 mi West 10.4 mph - 0.01 in   Light Drizzle
6:55 AM 39.7 °F 36.5 °F 37.4 °F 91% 30.00 in 10.0 mi NNW 4.6 mph - 0.01 in Rain Light Rain
7:15 AM 38.7 °F - 36.9 °F 93% 30.01 in 10.0 mi Calm Calm - N/A   Mostly Cloudy
7:35 AM 39.6 °F - 37.4 °F 92% 30.02 in 10.0 mi Calm Calm - N/A   Overcast
7:55 AM 39.9 °F - 36.9 °F 89% 30.02 in 10.0 mi Calm Calm - N/A   Overcast
8:15 AM 41.5 °F 37.8 °F 37.4 °F 85% 30.03 in 10.0 mi WSW 5.8 mph - N/A   Mostly Cloudy
8:35 AM 41.7 °F 39.8 °F 37.2 °F 84% 30.04 in 10.0 mi WNW 3.5 mph - N/A   Mostly Cloudy
8:55 AM 42.8 °F 37.0 °F 37.4 °F 81% 30.04 in 10.0 mi West 10.4 mph - N/A   Overcast
9:15 AM 42.8 °F 35.1 °F 36.7 °F 79% 30.04 in 10.0 mi WNW 16.1 mph - N/A   Overcast
9:35 AM 44.2 °F 38.4 °F 37.0 °F 76% 30.04 in 10.0 mi West 11.5 mph 18.4 mph N/A   Scattered Clouds
9:55 AM 43.5 °F 36.1 °F 35.6 °F 74% 30.04 in 10.0 mi WNW 16.1 mph - N/A   Scattered Clouds
10:15 AM 45.5 °F 41.8 °F 36.7 °F 71% 30.05 in 10.0 mi NW 6.9 mph 18.4 mph N/A   Mostly Cloudy
10:35 AM 45.0 °F 39.3 °F 35.4 °F 69% 30.05 in 10.0 mi NNW 11.5 mph 19.6 mph N/A   Overcast
10:55 AM 45.9 °F 40.0 °F 34.5 °F 65% 30.05 in 10.0 mi NW 12.7 mph - N/A   Mostly Cloudy
11:15 AM 46.6 °F - 34.2 °F 62% 30.05 in 10.0 mi WNW 12.7 mph - N/A   Overcast
11:35 AM 49.3 °F - 35.1 °F 58% 30.05 in 10.0 mi WNW 12.7 mph 18.4 mph N/A   Overcast
11:55 AM 48.9 °F - 34.0 °F 56% 30.04 in 10.0 mi West 19.6 mph - N/A   Mostly Cloudy
12:15 PM 49.3 °F - 33.1 °F 54% 30.04 in 10.0 mi West 18.4 mph 27.6 mph N/A   Mostly Cloudy
12:35 PM 49.3 °F - 32.2 °F 52% 30.02 in 10.0 mi West 20.7 mph 26.5 mph N/A   Mostly Cloudy
12:55 PM 48.6 °F - 33.1 °F 55% 30.02 in 10.0 mi NW 16.1 mph - N/A   Scattered Clouds
1:15 PM 47.7 °F - 32.4 °F 55% 30.03 in 10.0 mi NW 19.6 mph 26.5 mph N/A   Scattered Clouds
1:35 PM 48.2 °F - 30.6 °F 51% 30.04 in 10.0 mi NW 16.1 mph 24.2 mph N/A   Scattered Clouds
1:55 PM 46.9 °F - 31.5 °F 55% 30.04 in 10.0 mi NW 16.1 mph - N/A   Scattered Clouds
2:15 PM 47.8 °F - 31.1 °F 52% 30.05 in 10.0 mi WNW 13.8 mph - N/A   Mostly Cloudy
2:35 PM 48.4 °F - 30.7 °F 51% 30.05 in 10.0 mi NW 15.0 mph - N/A   Overcast
2:55 PM 48.2 °F - 30.7 °F 51% 30.06 in 10.0 mi NW 16.1 mph - N/A   Overcast
3:15 PM 46.2 °F 40.5 °F 30.0 °F 53% 30.07 in 10.0 mi WNW 12.7 mph 18.4 mph N/A   Overcast
3:35 PM 45.7 °F 39.8 °F 29.3 °F 53% 30.08 in 10.0 mi NW 12.7 mph - N/A   Overcast
3:55 PM 44.1 °F 37.1 °F 28.2 °F 54% 30.08 in 10.0 mi NW 15.0 mph 19.6 mph N/A   Mostly Cloudy
4:15 PM 42.8 °F 35.4 °F 27.1 °F 54% 30.10 in 10.0 mi NW 15.0 mph 19.6 mph N/A   Overcast
4:35 PM 41.5 °F 34.2 °F 27.7 °F 58% 30.10 in 10.0 mi NW 13.8 mph 18.4 mph N/A   Overcast
4:55 PM 40.3 °F 33.4 °F 26.8 °F 59% 30.11 in 10.0 mi NW 11.5 mph - N/A   Mostly Cloudy
5:15 PM 38.8 °F 32.1 °F 26.8 °F 62% 30.11 in 10.0 mi NW 10.4 mph 19.6 mph N/A   Scattered Clouds
5:35 PM 37.8 °F 31.3 °F 26.2 °F 63% 30.12 in 10.0 mi NW 9.2 mph - N/A   Clear
5:55 PM 36.7 °F 31.2 °F 26.2 °F 66% 30.14 in 10.0 mi NNW 6.9 mph - N/A   Clear
6:15 PM 36.7 °F 28.4 °F 23.7 °F 59% 30.14 in 10.0 mi NW 12.7 mph 17.3 mph N/A   Clear
6:35 PM 36.3 °F 28.0 °F 22.8 °F 58% 30.15 in 10.0 mi NW 12.7 mph 18.4 mph N/A   Clear
6:55 PM 34.5 °F - 23.0 °F 63% 30.15 in 10.0 mi Calm Calm - N/A   Scattered Clouds
7:15 PM 35.4 °F 29.7 °F 22.5 °F 59% 30.17 in 10.0 mi North 6.9 mph - N/A   Mostly Cloudy
7:35 PM 34.9 °F 27.1 °F 22.1 °F 60% 30.17 in 10.0 mi NNW 10.4 mph - N/A   Scattered Clouds
7:55 PM 33.3 °F 23.2 °F 21.7 °F 63% 30.17 in 10.0 mi NW 15.0 mph - N/A   Clear
8:15 PM 34.0 °F 25.5 °F 19.2 °F 55% 30.19 in 10.0 mi NW 11.5 mph - N/A   Clear
8:35 PM 32.4 °F 24.6 °F 18.1 °F 56% 30.20 in 10.0 mi NW 9.2 mph - N/A   Clear
8:55 PM 31.6 °F 25.1 °F 17.6 °F 56% 30.20 in 10.0 mi NNW 6.9 mph - N/A   Clear
9:15 PM 32.0 °F 24.2 °F 16.7 °F 53% 30.21 in 10.0 mi NW 9.2 mph - N/A   Clear
9:35 PM 32.4 °F 26.9 °F 15.1 °F 49% 30.22 in 10.0 mi NW 5.8 mph - N/A   Clear
9:55 PM 32.7 °F 23.9 °F 13.1 °F 44% 30.22 in 10.0 mi WNW 11.5 mph - N/A   Clear
10:15 PM 32.0 °F 23.6 °F 12.7 °F 45% 30.22 in 10.0 mi WNW 10.4 mph - N/A   Clear
10:35 PM 32.0 °F 23.6 °F 12.7 °F 45% 30.23 in 10.0 mi WNW 10.4 mph - N/A   Clear
10:55 PM 29.5 °F 19.9 °F 13.5 °F 51% 30.24 in 10.0 mi NW 11.5 mph - N/A   Clear
11:35 PM 29.1 °F 20.6 °F 14.9 °F 55% 30.25 in 10.0 mi North 9.2 mph - N/A   Clear
11:55 PM 30.4 °F 22.9 °F 13.1 °F 49% 30.26 in 10.0 mi NNW 8.1 mph - N/A   Clear